User: anonymous   Login
Location: Capannuccia
(43.7000°N, 11.3000°E)
Time: 17:00:24
(UTC+00:00)
Language:

STARLINK-77 - Orbit

View from above orbital plane
View from above orbital plane
View from above satellite
View from above satellite

Ground track
Ground track

The orbit data is extracted from the following two-line orbital elements,

1 44291U 19029BJ  20228.25001157  .01172417  00000-0  60745-2 0  9993
2 44291  53.0091 284.6356 0001288  62.0164  23.3697 15.77783771 69325
Epoch (UTC): 15 August 2020 06:00:01
Eccentricity: 0.0001288
inclination: 53.0091°
perigee height: 336 km
apogee height: 337 km
right ascension of ascending node: 284.6356°
argument of perigee: 62.0164°
revolutions per day: 15.77783771
mean anomaly at epoch: 23.3697°
orbit number at epoch: 6932

The dashed part of the orbit path shows where the satellite is in the earth's shadow,  

DLR